www.pogodaiklimat.ru

Погода и климат >> Архив погоды >> Бразилия >> Рио-де-Жанейро >> Арраял-ду-Кабу


ПОГОДА в Арраял-ду-Кабу

  • Прогноз погоды в Арраял-ду-Кабу
  • Монитор погоды в Арраял-ду-Кабу

АРХИВ ПОГОДЫ в Арраял-ду-Кабу

Время (UTC), дата Ветер
(напр.,м/с)
 
Видим.   Явления Облачность Т
(С)
Тd
(С)
f
(%)
Тe
(С)
Тes
(С)
Комфортность P
(гПа)
Po
(гПа)
Тmin
(С)
Tmax
(С)
R
(мм)
R24
(мм)
S
(см)
01 17.02 В 4
{4}
н/о н/о +24.5 -23.6 3 +21 +21 комфорт 1009.8 1009.4
02 17.02 В 4
{5}
н/о н/о +24.8 -23.4 3 +21 +21 комфорт 1010.1 1009.7
03 17.02 В 3
{5}
н/о н/о +24.5 -23.6 3 +21 +21 комфорт 1009.7 1009.3 0.2
04 17.02 В 2
{4}
н/о н/о +24.4 -23.7 3 +21 +21 комфорт 1009.1 1008.7
05 17.02 СВ 2
{4}
н/о н/о +24.3 -23.8 3 +21 +21 комфорт 1008.1 1007.7
06 17.02 В 1
{3}
н/о н/о +24.3 -23.7 3 +21 +21 комфорт 1007.3 1006.9
07 17.02 В 1
{2}
н/о н/о +23.9 -24.0 3 +21 +21 комфорт 1007.3 1006.9
08 17.02 ЮВ 1
{2}
н/о н/о +23.9 -24.0 3 +21 +21 комфорт 1007.7 1007.3
09 17.02 ЮВ 1
{2}
н/о н/о +24.0 -24.0 3 +21 +21 комфорт 1008.2 1007.8
10 17.02 В 1
{1}
н/о н/о +25.3 -23.1 3 +22 +22 комфорт 1009.1 1008.7
11 17.02 В 2
{3}
н/о н/о +26.1 -22.5 3 +22 +22 комфорт 1009.9 1009.5
12 17.02 В 2
{3}
н/о н/о +28.2 -21.1 3 +24 +24 комфорт 1009.8 1009.4
13 17.02 В 1
{3}
н/о н/о +27.7 -21.4 3 +23 +23 комфорт 1009.5 1009.1
14 17.02 В 2
{3}
н/о н/о +27.6 +23 +23 комфорт 1009.6 1009.2
15 17.02 В 2
{3}
н/о н/о +28.3 +23 +23 комфорт 1009.7 1009.3
16 17.02 В 2
{3}
н/о н/о +30.2 +25 +25 комфорт 1009.1 1008.7
17 17.02 В 2
{3}
н/о н/о +29.1 +24 +24 комфорт 1008.5 1008.1
18 17.02 ЮВ 2
{3}
н/о н/о +29.3 +24 +24 комфорт 1008.0 1007.6
19 17.02 В 2
{2}
н/о н/о +28.2 +23 +23 комфорт 1008.0 1007.6
20 17.02 В 2
{3}
н/о н/о +27.4 +23 +23 комфорт 1008.6 1008.2
21 17.02 В 1
{3}
н/о н/о +26.6 +22 +22 комфорт 1009.7 1009.3
22 17.02 В 2
{4}
н/о н/о +25.3 -23.1 3 +22 +22 комфорт 1010.8 1010.4 11
23 17.02 З 1
{2}
н/о н/о +25.1 -18.8 4 +22 +22 комфорт 1011.5 1011.1 0.6
00 18.02 З 1
{2}
н/о н/о +24.2 -23.8 3 +21 +21 комфорт 1012.0 1011.6 0.4
01 18.02 З 1
{2}
н/о н/о +24.6 -23.6 3 +21 +21 комфорт 1012.4 1012.0 1
02 18.02 З 1
{2}
н/о н/о +24.6 -23.5 3 +21 +21 комфорт 1012.1 1011.7
03 18.02 СЗ 1
{2}
н/о н/о +24.7 -23.5 3 +21 +21 комфорт 1011.6 1011.2
04 18.02 Ю 1
{1}
н/о н/о +24.4 -23.7 3 +21 +21 комфорт 1011.0 1010.6
05 18.02 В 1
{1}
н/о н/о +24.2 -23.8 3 +21 +21 комфорт 1010.2 1009.8
06 18.02 Ю 1
{1}
н/о н/о +23.8 -24.0 3 +20 +20 1009.9 1009.5
07 18.02 ЮЗ 2
{3}
н/о н/о +24.2 -23.8 3 +21 +21 комфорт 1010.3 1009.9
08 18.02 Ю 2
{3}
н/о н/о +24.6 -23.5 3 +21 +21 комфорт 1010.3 1009.9
09 18.02 В 1
{3}
н/о н/о +24.7 -23.5 3 +21 +21 комфорт 1010.6 1010.2
10 18.02 СЗ 1
{1}
н/о н/о +26.0 -22.6 3 +22 +22 комфорт 1011.3 1010.9
11 18.02 В 1
{2}
н/о н/о +28.4 -21.0 3 +24 +24 комфорт 1011.7 1011.3
13 18.02 В 1
{3}
н/о н/о +27.8 -21.4 3 +23 +23 комфорт 1012.8 1012.4
14 18.02 В 2
{2}
н/о н/о +29.6 -20.2 3 +25 +25 комфорт 1012.8 1012.4
15 18.02 ЮВ 1
{2}
н/о н/о +29.7 +25 +25 комфорт 1012.5 1012.1
16 18.02 Ю 2
{3}
н/о н/о +27.3 +23 +23 комфорт 1012.0 1011.6
17 18.02 Ю 3
{4}
н/о н/о +28.1 +23 +23 комфорт 1010.8 1010.4
18 18.02 Ю 2
{4}
н/о н/о +28.7 +24 +24 комфорт 1010.5 1010.1
19 18.02 Ю 2
{4}
н/о н/о +26.6 +22 +22 комфорт 1010.3 1009.9
20 18.02 ЮЗ 1
{3}
н/о н/о +26.4 -22.3 3 +22 +22 комфорт 1010.6 1010.2
21 18.02 З 1
{3}
н/о н/о +25.7 -22.8 3 +22 +22 комфорт 1012.2 1011.8 0.4
22 18.02 З 1
{2}
н/о н/о +25.3 -23.1 3 +22 +22 комфорт 1012.7 1012.3 4
23 18.02 З 1
{2}
н/о н/о +24.9 -23.4 3 +21 +21 комфорт 1012.9 1012.5 0.8
00 19.02 ЮЗ 1
{2}
н/о н/о +24.9 -23.3 3 +21 +21 комфорт 1013.4 1013.0
01 19.02 СЗ 1
{2}
н/о н/о +24.6 -23.5 3 +21 +21 комфорт 1013.9 1013.5
02 19.02 Ю 1
{2}
н/о н/о +24.6 -23.5 3 +21 +21 комфорт 1013.7 1013.3
03 19.02 СЗ 1
{2}
н/о н/о +24.5 -23.6 3 +21 +21 комфорт 1013.2 1012.8
04 19.02 СВ 1
{2}
н/о н/о +24.5 -23.6 3 +21 +21 комфорт 1013.1 1012.7
05 19.02 С 1
{2}
н/о н/о +24.5 -23.6 3 +21 +21 комфорт 1011.8 1011.4 0.6
06 19.02 В 1
{3}
н/о н/о +24.4 -23.6 3 +21 +21 комфорт 1011.3 1010.9
07 19.02 СВ 2
{4}
н/о н/о +24.4 -23.7 3 +21 +21 комфорт 1010.9 1010.5 0.2
08 19.02 СВ 3
{5}
н/о н/о +24.4 -23.6 3 +21 +21 комфорт 1011.0 1010.6
09 19.02 СВ 3
{5}
н/о н/о +24.8 -23.4 3 +21 +21 комфорт 1010.2 1009.8
10 19.02 СВ 2
{5}
н/о н/о +24.9 -23.3 3 +21 +21 комфорт 1010.4 1010.0
11 19.02 З 1
{3}
н/о н/о +25.3 -23.1 3 +22 +22 комфорт 1010.8 1010.4
12 19.02 Ю 1
{3}
н/о н/о +26.0 -22.6 3 +22 +22 комфорт 1011.2 1010.8
13 19.02 СВ 1
{2}
н/о н/о +29.3 -20.3 3 +25 +25 комфорт 1011.8 1011.4
14 19.02 В 2
{3}
н/о н/о +29.6 +25 +25 комфорт 1011.8 1011.4
15 19.02 В 3
{4}
н/о н/о +28.5 +24 +24 комфорт 1011.4 1011.0
16 19.02 В 2
{4}
н/о н/о +28.4 +23 +23 комфорт 1010.9 1010.5
18 19.02 В 2
{4}
н/о н/о +26.1 -22.5 3 +22 +22 комфорт 1010.0 1009.6
19 19.02 В 1
{3}
н/о н/о +26.1 -22.5 3 +22 +22 комфорт 1009.8 1009.4 0.2
20 19.02 В 1
{2}
н/о н/о +25.8 -22.7 3 +22 +22 комфорт 1009.7 1009.3 1
21 19.02 ЮВ 1
{3}
н/о н/о +26.0 -13.3 7 +23 +23 комфорт 1009.1 1008.7
22 19.02 С 1
{2}
н/о н/о +25.6 -22.8 3 +22 +22 комфорт 1009.4 1009.0
23 19.02 В 1
{2}
н/о н/о +25.7 -22.8 3 +22 +22 комфорт 1010.4 1010.0
00 20.02 В 1
{1}
н/о н/о +25.3 -7.0 11 +23 +23 комфорт 1010.8 1010.4
01 20.02 ЮВ 1
{2}
н/о н/о +25.0 -23.2 3 +21 +21 комфорт 1011.2 1010.8
02 20.02 З 1
{2}
н/о н/о +25.2 -23.1 3 +21 +21 комфорт 1011.4 1011.0
03 20.02 З 1
{1}
н/о н/о +25.2 -23.2 3 +21 +21 комфорт 1011.6 1011.2
04 20.02 З 1
{2}
н/о н/о +24.9 -20.3 4 +21 +21 комфорт 1012.0 1011.6
05 20.02 ЮВ 1
{2}
н/о н/о +25.1 -23.2 3 +21 +21 комфорт 1010.5 1010.1
06 20.02 В 1
{2}
н/о н/о +24.7 -23.4 3 +21 +21 комфорт 1009.9 1009.5
07 20.02 ЮЗ 1
{2}
н/о н/о +24.6 -23.5 3 +21 +21 комфорт 1009.7 1009.3
08 20.02 В 1
{1}
н/о н/о +24.5 -23.6 3 +21 +21 комфорт 1009.6 1009.2
09 20.02 СЗ 1
{1}
н/о н/о +24.5 -23.6 3 +21 +21 комфорт 1010.0 1009.6
10 20.02 В 1
{1}
н/о н/о +25.9 -22.7 3 +22 +22 комфорт 1010.5 1010.1
11 20.02 В 1
{2}
н/о н/о +27.5 -21.6 3 +23 +23 комфорт 1010.9 1010.5
12 20.02 В 1
{2}
н/о н/о +28.5 -16.5 4 +24 +24 комфорт 1011.6 1011.2
13 20.02 В 2
{2}
н/о н/о +29.6 -20.2 3 +25 +25 комфорт 1011.8 1011.4
14 20.02 В 2
{3}
н/о н/о +29.1 +24 +24 комфорт 1011.5 1011.1
15 20.02 В 1
{3}
н/о н/о +29.4 +24 +24 комфорт 1011.0 1010.6
16 20.02 Ю 2
{3}
н/о н/о +29.4 +24 +24 комфорт 1010.4 1010.0
17 20.02 В 2
{3}
н/о н/о +30.5 +25 +25 комфорт 1009.7 1009.3
18 20.02 СВ 2
{5}
н/о н/о +30.5 +25 +25 комфорт 1008.8 1008.4
19 20.02 В 2
{3}
н/о н/о +27.9 +23 +23 комфорт 1009.1 1008.7
20 20.02 СВ 2
{3}
н/о н/о +28.1 +23 +23 комфорт 1009.7 1009.3
21 20.02 СВ 1
{3}
н/о н/о +27.6 +23 +23 комфорт 1010.3 1009.9
22 20.02 ЮВ 1
{2}
н/о н/о +26.8 +22 +22 комфорт 1011.1 1010.7
23 20.02 СВ 1
{1}
н/о н/о +26.2 -22.5 3 +22 +22 комфорт 1011.6 1011.2
08 21.02 штиль 0
{1}
н/о н/о +25.2 -23.1 3 +21 +21 комфорт 1012.0 1011.6
09 21.02 СВ 1
{1}
н/о н/о +25.6 -22.9 3 +22 +22 комфорт 1012.5 1012.1
10 21.02 З 1
{1}
н/о н/о +26.7 -22.1 3 +23 +23 комфорт 1013.7 1013.3
11 21.02 З 1
{2}
н/о н/о +27.1 -21.8 3 +23 +23 комфорт 1014.4 1014.0
12 21.02 СЗ 1
{2}
н/о н/о +29.2 -20.5 3 +25 +25 комфорт 1015.0 1014.6
13 21.02 ЮЗ 1
{2}
н/о н/о +28.7 +24 +24 комфорт 1015.4 1015.0
14 21.02 В 1
{2}
н/о н/о +30.2 +25 +25 комфорт 1015.6 1015.2
15 21.02 Ю 2
{2}
н/о н/о +27.6 +23 +23 комфорт 1016.0 1015.6
16 21.02 ЮЗ 2
{3}
н/о н/о +28.4 +23 +23 комфорт 1015.8 1015.4
17 21.02 З 1
{4}
н/о н/о +26.1 -22.5 3 +22 +22 комфорт 1015.7 1015.3 0.8
18 21.02 ЮЗ 1
{2}
н/о н/о +26.6 -22.2 3 +22 +22 комфорт 1015.4 1015.0 0.2
19 21.02 ЮЗ 1
{2}
н/о н/о +27.2 +22 +22 комфорт 1014.9 1014.5
20 21.02 В 1
{2}
н/о н/о +27.0 +22 +22 комфорт 1014.8 1014.4
21 21.02 В 1
{2}
н/о н/о +26.4 +22 +22 комфорт 1014.6 1014.2
22 21.02 ЮЗ 1
{1}
н/о н/о +26.1 -22.5 3 +22 +22 комфорт 1013.9 1013.5
23 21.02 СВ 2
{3}
н/о н/о +26.4 +22 +22 комфорт 1015.1 1014.7
00 22.02 СВ 2
{3}
н/о н/о +25.6 -22.8 3 +22 +22 комфорт 1016.0 1015.6
01 22.02 СВ 1
{3}
н/о н/о +25.6 -22.8 3 +22 +22 комфорт 1016.8 1016.4
02 22.02 В 2
{2}
н/о н/о +25.2 -23.1 3 +21 +21 комфорт 1016.4 1016.0
03 22.02 В 1
{2}
н/о н/о +25.2 -23.1 3 +21 +21 комфорт 1015.9 1015.5
04 22.02 В 1
{2}
н/о н/о +25.2 -23.1 3 +21 +21 комфорт 1015.4 1015.0
05 22.02 В 1
{2}
н/о н/о +25.3 -23.1 3 +22 +22 комфорт 1014.9 1014.5
06 22.02 В 2
{2}
н/о н/о +25.3 +21 +21 комфорт 1014.4 1014.0
07 22.02 В 1
{2}
н/о н/о +25.2 +21 +21 комфорт 1014.2 1013.8
08 22.02 В 1
{1}
н/о н/о +25.3 -23.1 3 +22 +22 комфорт 1014.4 1014.0
09 22.02 В 1
{2}
н/о н/о +25.3 -23.1 3 +22 +22 комфорт 1014.9 1014.5
10 22.02 В 2
{2}
н/о н/о +26.6 -22.2 3 +22 +22 комфорт 1015.5 1015.1
11 22.02 В 2
{2}
н/о н/о +27.8 -21.4 3 +23 +23 комфорт 1015.9 1015.5
12 22.02 В 2
{3}
н/о н/о +28.7 +24 +24 комфорт 1016.2 1015.8
13 22.02 В 2
{3}
н/о н/о +29.5 +24 +24 комфорт 1016.3 1015.9
14 22.02 В 3
{4}
н/о н/о +30.4 +25 +25 комфорт 1016.0 1015.6
15 22.02 В 3
{4}
н/о н/о +30.4 +25 +25 комфорт 1015.5 1015.1
16 22.02 В 3
{4}
н/о н/о +30.3 +25 +25 комфорт 1014.8 1014.4
00 23.02 В 3
{4}
н/о н/о +27.1 -21.8 3 +23 +23 комфорт 1015.8 1015.4
01 23.02 В 3
{4}
н/о н/о +27.0 -21.9 3 +23 +23 комфорт 1016.1 1015.7
02 23.02 В 2
{4}
н/о н/о +26.8 -22.1 3 +23 +23 комфорт 1016.0 1015.6
03 23.02 В 2
{4}
н/о н/о +26.6 -22.2 3 +22 +22 комфорт 1015.9 1015.5
04 23.02 СВ 2
{3}
н/о н/о +26.2 -22.4 3 +22 +22 комфорт 1014.2 1013.8
05 23.02 СВ 2
{4}
н/о н/о +26.6 -22.2 3 +22 +22 комфорт 1014.1 1013.7
06 23.02 СВ 2
{3}
н/о н/о +26.4 -22.3 3 +22 +22 комфорт 1013.0 1012.6
07 23.02 СВ 2
{4}
н/о н/о +26.1 -22.5 3 +22 +22 комфорт 1012.8 1012.4
08 23.02 СВ 2
{3}
н/о н/о +26.2 -22.4 3 +22 +22 комфорт 1012.5 1012.1
09 23.02 СВ 3
{5}
н/о н/о +26.3 -22.4 3 +22 +22 комфорт 1012.7 1012.3
10 23.02 СВ 3
{5}
н/о н/о +27.2 -21.8 3 +23 +23 комфорт 1012.8 1012.4
11 23.02 СВ 3
{6}
н/о н/о +28.4 -21.0 3 +24 +24 комфорт 1012.9 1012.5
12 23.02 СВ 4
{6}
н/о н/о +27.6 -21.5 3 +23 +23 комфорт 1013.1 1012.7
13 23.02 СВ 3
{5}
н/о н/о +28.5 -20.9 3 +24 +24 комфорт 1013.0 1012.6
14 23.02 СВ 3
{5}
н/о н/о +30.2 -19.8 3 +26 +26 жарко 1012.4 1012.0
15 23.02 В 3
{4}
н/о н/о +29.4 -20.3 3 +25 +25 комфорт 1012.0 1011.6
16 23.02 В 2
{4}
н/о н/о +29.6 -20.2 3 +25 +25 комфорт 1011.3 1010.9
17 23.02 В 2
{3}
н/о н/о +30.4 -19.7 3 +26 +26 жарко 1010.7 1010.3
18 23.02 В 2
{3}
н/о н/о +30.2 -19.8 3 +26 +26 жарко 1010.3 1009.9
19 23.02 В 2
{3}
н/о н/о +29.4 -20.3 3 +25 +25 комфорт 1009.8 1009.4
21 23.02 В 2
{3}
н/о н/о +27.8 -21.4 3 +23 +23 комфорт 1010.0 1009.6
00 24.02 В 2
{3}
н/о н/о +27.2 -21.8 3 +23 +23 комфорт 1011.0 1010.6
01 24.02 В 2
{3}
н/о н/о +27.2 -21.8 3 +23 +23 комфорт 1011.7 1011.3

 

Местоположение метеостанции Арраял-ду-Кабу (Рио-де-Жанейро, Бразилия): широта -22.98 долгота -42.02 высота над уровнем моря 6 м.

В архиве по умолчанию представлена погода в Арраял-ду-Кабу за последнюю неделю. Архивные данные за месяц целиком и за предыдущие месяцы, начиная с января 2011 года, Вы можете получить, выбрав интересующий диапазон дат из раскрывающегося списка и нажав кнопку "Ввод!".


*Определитесь, кто Вы:
робот инопланетянин человек

Внимание! Время в таблицах - всемирное. Для получения местного времени необходимо прибавить поправку, которая равна -3 ч.

Смотрите также архив погоды в соседних городах и на ближайших метеорологических станциях:

Погода в Макаэ (Рио-де-Жанейро, Бразилия) (70 км)
Погода в Нова-Фрибургу (Рио-де-Жанейро, Бразилия) (99 км)
Погода в Кордейру (Рио-де-Жанейро, Бразилия) (111 км)
Погода в Терезополисе (Рио-де-Жанейро, Бразилия) (116 км)
Погода на Маяке Ilha Rasa (Рио-де-Жанейро, Бразилия) (116 км)
Погода в Рио-де-Жанейро аэропорту (Рио-де-Жанейро, Бразилия) (117 км)
Погода в Рио-де-Жанейро (Рио-де-Жанейро, Бразилия) (118 км)
Погода в Рио-де-Жанейро - Форте-де-Копакабана (Рио-де-Жанейро, Бразилия) (120 км)
Погода в Галеао (Рио-де-Жанейро, Бразилия) (127 км)
Погода в Ксереме (Рио-де-Жанейро, Бразилия) (136 км)

Пояснения к столбцам:

Ветер - указаны скорость ветра в м/с - средняя за 10 мин, порывы в срок и между сроками (в фигурных скобках) и направление, откуда дует ветер: С - северный, СВ - северо-восточный, В - восточный, ЮВ - юго-восточный, Ю - южный, ЮЗ - юго-западный, З - западный, СЗ - северо-западный.
Видимость - горизонтальная дальность видимости в метрах или километрах. При видимости от 1 до 10 км при отсутствии осадков обычно наблюдается дымка, при ухудшении видимости до 1 км и менее - туман. В сухую погоду видимость может ухудшаться дымом, пылью или мглою.
Явления - указаны атмосферные явления, наблюдавшиеся в срок или в последний час перед сроком; фигурными скобками обозначены явления, наблюдавшиеся между сроками (за 1-3 часа до срока); квадратными скобками обозначены град или гололедные отложения с указанием их диаметра в мм.
Облачность - указаны через наклонную черту общая и нижняя облачность в баллах и высота нижней границы облаков в метрах; квадратными скобками обозначены формы облаков: Ci - перистые, Cs - перисто-слоистые, Cc - перисто-кучевые, Ac - высококучевые, As - высокослоистые, Sc - слоисто-кучевые, Ns - слоисто-дождевые, Cu - кучевые, Cb - кучево-дождевые. Подробнее классификацию облаков см. в Атласе облаков (PDF).
T - Температура воздуха - температура, измеренная на высоте 2 м над землей.
Td - Температура точки росы - температура, при понижении до которой содержащийся в воздухе водяной пар достигнет насыщения.
f - Относительная влажность воздуха - влажноcть воздуха, измеренная на высоте 2 м над землей.
Te - Эффективная температура - температура, которую ощущает одетый по сезону человек в тени. Характеристика душности погоды. При расчете учитывается влияние влажности воздуха и скорости ветра на теплоощущения человека.
Tes - Эффективная температура на солнце - температура, которую ощущает человек, с поправкой на солнечный нагрев. Характеристика знойности погоды. Зависит от высоты солнца над горизонтом, облачности и скорости ветра. Ночью, в пасмурную погоду, а также при ветре 12 м/с и более поправка равна нулю.
P - Атмосферное давление - приведенное к уровню моря атмосферное давление.
Po - Атмосферное давление - измеренное на уровне метеостанции атмосферное давление.
Tmin - Минимальная температура - минимум температуры воздуха на высоте 2 м над землей.
Tmax - Максимальная температура - максимум температуры воздуха на высоте 2 м над землей.
R - Количество осадков - Количество выпавших осадков за период времени, мм. При наведении курсора мыши на число - период времени, за который выпало указанное количество осадков.
R24 - Количество осадков - Количество выпавших осадков за 24 часа, мм.
S - Снежный покров - Высота снежного покрова, см. При наведении курсора мыши на число - состояние снежного покрова и степень покрытия местности в баллах.